EHI
15 14 11 6 1 0 0 0 0 0 0 0 0 1 1 1 0 0 0 1 1 1 0 0 0 0 0 0 0 0 0 0 0 0 1 1 2 2 1 0 0 0 0 0 0 0 0 0 0
11 8 5 3 1 0 0 0 0 0 0 0 0 0 0 0 0 0 0 0 0 0 0 0 0 0 0 0 0 0 0 0 0 1 2 2 2 1 0 0 0 0 0 0 0 0 0 0 1
6 3 1 0 0 0 0 0 0 0 0 0 0 0 0 0 0 0 0 0 0 0 0 0 0 0 0 0 0 0 0 0 0 1 2 2 1 0 0 0 0 0 1 0 0 0 0 0 1
3 2 0 0 0 0 0 0 0 0 0 0 0 0 0 0 1 1 1 0 0 0 0 0 0 0 0 0 0 0 0 0 1 1 1 1 0 0 0 0 0 0 0 0 0 0 0 0 1
4 3 1 0 0 0 0 0 0 0 0 0 0 0 0 1 1 1 1 0 0 0 0 0 0 0 0 0 0 0 0 0 1 2 1 0 0 0 0 0 0 0 0 0 0 0 0 0 0
6 4 1 0 1 1 1 0 0 0 0 0 0 0 0 1 1 1 0 0 0 0 0 0 0 0 0 0 0 0 0 0 1 1 1 0 0 0 0 0 0 0 0 0 0 0 0 0 0
4 3 1 0 1 1 1 0 0 0 0 0 0 0 0 0 0 0 0 0 0 0 0 0 0 0 0 0 0 0 0 0 0 0 0 0 0 0 0 0 0 0 0 0 0 0 0 0 0
1 1 0 0 0 0 0 0 0 0 0 0 0 0 0 0 0 0 0 0 0 0 0 0 0 0 0 0 0 0 0 0 0 0 0 0 0 0 0 0 0 0 0 0 0 0 0 0 0
0 0 0 0 0 0 0 0 0 0 0 0 0 0 0 0 0 0 0 0 0 0 0 0 0 0 0 0 0 0 0 0 0 0 0 0 0 0 0 0 0 0 0 1 1 1 1 1 0
0 0 0 0 0 0 0 0 0 0 0 0 0 0 0 0 0 0 0 0 0 0 0 0 0 0 0 0 0 0 0 0 0 0 0 0 0 0 0 0 0 0 0 1 2 2 2 2 1
0 0 0 0 0 0 0 0 0 0 0 0 0 0 0 0 0 0 0 0 0 0 0 0 0 0 0 0 0 0 0 0 0 0 0 0 0 0 0 0 1 0 0 1 1 1 1 1 0
0 0 0 0 0 0 0 0 0 0 0 1 0 0 0 0 0 0 0 0 0 0 0 0 0 0 0 0 0 0 0 0 0 0 0 0 0 0 0 0 0 0 0 0 0 0 0 0 0
0 0 0 0 0 0 0 0 0 0 0 0 0 0 0 0 0 0 0 0 0 0 0 0 0 0 0 0 0 0 0 0 0 0 0 0 0 0 0 0 0 0 0 0 0 0 0 0 0
0 0 0 0 0 0 0 0 0 0 0 0 0 0 0 0 0 0 0 0 0 0 0 0 0 0 0 0 0 0 0 0 0 0 0 0 0 0 0 0 0 0 0 0 0 0 0 0 0
0 0 0 0 0 0 0 0 0 0 0 0 0 0 0 0 0 0 0 0 0 0 0 0 0 0 0 0 0 0 0 0 0 0 0 0 0 0 0 0 0 0 0 0 0 0 0 0 0
0 0 0 0 0 0 0 0 0 0 0 0 0 0 0 0 0 0 0 0 0 0 0 0 0 0 0 0 0 0 0 0 0 0 0 0 0 0 0 0 0 0 0 0 0 0 0 0 0
0 0 0 0 0 0 0 0 0 0 0 0 0 0 0 0 0 0 0 0 0 0 0 0 0 0 0 0 0 0 0 0 0 0 0 0 0 0 0 0 0 0 0 0 0 0 0 0 0
0 0 0 0 0 0 0 0 0 0 0 0 0 0 0 0 0 0 0 0 0 0 0 0 0 0 0 0 0 0 0 0 0 0 0 0 0 0 0 0 0 0 0 0 0 0 0 0 0
0 0 0 0 0 0 0 0 0 0 0 0 0 0 0 0 0 0 0 0 0 0 0 0 0 0 0 0 0 0 0 0 0 0 0 0 0 0 0 0 0 0 0 0 0 0 0 0 0
0 0 0 0 0 0 0 0 0 0 0 0 0 0 0 0 0 0 0 0 0 0 0 0 0 0 0 0 0 0 0 0 0 0 0 0 0 0 0 0 0 0 0 0 0 0 0 0 0
0 0 0 0 0 0 0 0 0 0 0 0 0 0 0 0 0 0 0 0 0 0 0 0 0 0 0 0 0 0 0 0 0 0 0 0 0 0 0 0 0 0 0 0 0 0 0 0 0
0 0 0 0 0 0 0 0 0 0 0 0 0 0 0 0 0 0 0 0 0 0 0 0 0 0 0 0 0 0 0 0 0 0 0 0 0 0 0 0 0 0 0 0 0 0 0 0 0
0 0 0 0 0 0 0 0 0 0 0 0 0 0 0 0 0 0 0 0 0 0 1 1 1 0 0 0 0 0 0 0 0 0 0 0 0 0 0 0 0 0 0 0 0 0 0 0 0
0 0 0 0 0 0 0 0 0 0 0 0 0 0 0 0 0 0 0 0 0 0 2 2 1 1 0 0 0 1 1 0 0 0 0 0 0 0 0 0 0 0 0 0 0 0 0 0 0
0 0 0 0 0 0 0 0 0 0 0 0 0 0 1 2 1 1 1 1 1 1 3 3 2 1 0 0 0 1 1 0 0 0 0 0 0 0 0 0 0 0 0 0 0 0 0 0 0
0 0 0 0 0 0 0 0 0 0 0 0 0 1 2 3 3 3 2 2 1 1 2 3 3 2 1 0 0 0 0 0 0 0 0 0 0 0 0 0 0 0 0 0 0 0 0 0 0
0 0 0 0 0 0 0 0 0 0 0 0 0 1 2 3 3 3 2 1 1 1 1 2 3 2 1 0 0 0 0 0 0 0 0 0 0 0 0 0 0 0 0 0 0 0 0 0 0
0 0 0 0 0 0 0 0 0 0 0 0 0 0 1 1 2 2 2 2 1 0 1 2 2 1 0 0 0 0 0 0 0 0 0 0 0 0 0 0 0 0 0 0 0 0 0 0 0
0 0 0 0 0 0 0 0 0 0 0 0 0 0 0 0 1 1 2 2 1 0 1 1 1 0 0 0 0 0 0 0 0 0 0 0 0 0 0 0 0 0 0 0 0 0 0 0 0
0 0 0 0 0 0 0 0 0 0 0 0 0 0 0 1 2 2 1 1 0 0 0 1 0 0 0 0 0 0 0 0 0 0 0 0 0 0 0 0 0 0 0 0 0 0 0 0 0
Wind_Speed
8 8 4 2 2 2 3 4 5 6 7 8 9 11 14 13 10 9 3 7 12 13 12 12 13 14 13 13 13 13 12 12 12 12 11 11 10 10 10 9 9 9 9 9 8 8 7 7 7
8 5 3 2 2 0 4 5 7 8 6 7 9 13 14 12 12 9 5 8 12 13 12 12 13 14 13 13 13 12 12 12 11 11 11 10 10 10 9 9 9 9 9 8 8 7 7 6 6
9 6 3 2 1 1 4 6 7 6 5 7 10 12 9 8 10 7 7 11 13 14 12 12 14 13 13 13 12 12 12 11 11 10 10 10 9 9 9 9 8 8 8 8 7 7 6 6 5
4 3 3 2 2 5 6 5 5 7 7 8 10 10 10 10 9 10 10 13 14 14 12 11 13 13 12 12 12 11 11 10 10 10 10 9 8 8 8 8 8 8 8 7 7 6 6 6 5
3 3 3 1 3 6 6 5 4 5 7 11 13 13 11 12 13 12 10 12 13 13 12 12 13 13 12 11 11 10 10 10 9 9 8 7 7 7 7 8 8 8 8 7 7 7 6 5 5
2 3 2 1 4 6 4 3 6 8 11 14 15 13 9 9 10 9 10 10 12 12 12 11 13 12 11 10 9 9 8 8 7 7 6 5 4 5 6 7 7 8 8 7 7 6 6 5 4
2 2 2 2 4 5 4 4 6 6 8 9 12 11 10 9 8 8 9 8 9 10 10 10 10 10 11 10 8 7 6 6 5 4 2 2 1 2 5 6 7 7 7 6 6 5 5 4 4
2 2 1 1 4 4 3 5 6 7 7 8 10 10 10 11 9 8 8 7 8 8 8 8 8 9 8 7 8 7 5 4 3 2 2 2 3 2 3 6 5 4 5 5 5 4 4 5 5
3 1 0 2 3 3 4 6 6 7 8 10 12 15 15 14 11 9 7 7 6 6 5 6 6 6 5 6 7 7 6 4 3 4 4 4 0 2 3 6 3 1 2 4 5 5 6 6 6
1 1 1 3 4 5 5 6 7 8 11 14 16 16 15 13 11 9 8 8 7 6 6 6 6 6 5 4 4 2 3 2 1 1 1 1 2 2 4 4 3 3 4 5 7 8 7 6 3
1 2 1 4 5 6 6 6 7 9 10 14 16 16 13 12 10 9 8 8 7 6 5 5 6 5 5 3 3 2 1 1 2 2 3 3 3 2 2 1 1 2 1 2 3 4 2 1 0
2 3 5 5 4 5 5 5 8 9 11 14 14 14 12 11 9 8 9 8 6 6 5 4 5 5 6 4 3 2 2 2 2 3 3 3 2 2 2 2 2 1 1 2 3 2 3 4 3
3 4 6 6 6 6 8 8 10 11 12 14 14 12 11 10 9 8 9 8 8 6 4 4 4 6 6 3 2 4 3 2 2 2 3 4 3 3 2 2 2 3 2 2 3 3 4 4 4
4 5 7 7 7 7 8 7 8 10 11 13 12 10 9 8 9 9 8 8 8 6 6 4 5 4 4 3 3 3 2 2 3 3 3 4 3 3 3 3 3 3 3 3 3 4 3 2 2
5 6 6 5 6 7 8 7 9 10 11 11 10 9 8 7 7 7 7 8 8 7 7 5 5 5 5 5 4 3 3 4 3 3 4 4 4 4 4 3 3 3 4 4 4 5 4 3 3
5 4 4 4 5 6 6 7 9 10 11 9 8 7 6 6 8 7 7 7 7 7 7 4 5 6 5 4 4 3 4 4 3 4 4 6 5 5 4 3 3 4 4 4 3 4 4 4 3
5 5 6 6 7 6 6 7 8 9 10 9 8 7 7 7 7 8 7 8 8 8 7 5 5 5 5 4 3 4 4 4 4 4 4 5 6 6 4 3 4 5 4 4 5 4 3 3 3
7 7 7 8 7 6 5 7 8 8 8 8 8 8 8 8 8 8 7 7 7 7 8 7 5 5 4 2 3 3 4 4 4 4 4 5 5 6 4 3 5 5 4 4 4 5 4 3 3
4 6 6 5 6 6 6 8 10 9 8 8 8 8 9 9 9 8 8 7 6 6 8 6 5 5 4 2 3 3 2 3 3 3 4 5 5 5 4 4 4 4 4 4 5 4 5 4 3
4 5 5 5 4 4 6 7 9 9 9 7 8 8 9 9 10 9 8 6 6 6 6 7 5 5 5 2 2 2 2 3 3 3 3 5 5 6 5 5 3 4 4 5 5 4 4 3 4
3 5 5 5 4 4 5 6 8 9 8 7 7 7 9 10 11 10 9 7 6 6 5 6 6 6 5 4 3 3 2 2 3 3 3 4 5 5 5 5 4 4 4 4 5 5 5 4 4
3 4 5 5 4 4 6 4 7 10 10 9 8 7 8 9 10 9 8 8 6 6 5 6 5 6 5 4 3 3 3 2 3 2 2 3 4 4 4 4 5 5 4 4 5 5 4 4 4
2 4 4 4 2 3 5 3 6 12 12 11 10 8 8 9 10 10 8 7 7 6 5 5 6 6 5 5 4 2 3 3 2 2 2 3 3 3 4 4 5 5 4 4 5 5 5 4 4
4 3 1 1 2 4 7 5 5 10 13 13 12 11 9 9 10 9 8 7 7 6 5 6 6 5 4 4 4 3 4 4 3 3 2 2 2 2 3 3 4 4 4 4 4 4 4 4 5
5 4 2 3 3 4 6 6 5 8 12 13 13 12 11 9 10 10 10 8 7 7 6 6 6 5 4 3 3 4 4 3 3 2 2 2 2 2 2 3 3 3 4 4 4 4 4 4 5
8 6 3 2 3 3 6 5 3 7 9 11 11 12 12 12 10 11 10 9 8 8 7 7 7 6 4 3 3 4 4 2 2 2 2 2 2 2 2 3 4 4 4 4 4 4 4 5 5
6 6 4 3 4 3 4 3 3 5 9 11 12 12 12 11 10 11 11 10 9 9 7 7 7 6 5 4 4 4 4 3 3 2 2 2 2 2 3 2 3 3 4 4 4 3 4 5 5
5 4 4 4 3 3 5 7 7 10 9 10 11 12 12 12 12 11 10 10 9 8 8 8 8 7 5 4 4 4 3 3 3 2 3 3 3 3 2 2 3 3 3 3 4 3 3 3 3
8 8 6 4 4 2 1 1 4 10 11 10 10 11 11 12 12 11 10 9 9 8 8 7 7 7 6 5 4 5 3 3 3 3 3 2 2 2 2 2 3 3 3 3 3 3 4 4 4
8 10 8 4 3 3 1 2 3 7 9 9 10 11 12 12 11 11 10 9 9 9 9 8 7 7 6 5 5 5 4 3 3 3 2 2 2 2 2 3 4 4 4 4 3 3 4 4 4
Wind_Direction
283 271 259 253 254 233 66 69 69 64 59 53 54 67 68 54 63 91 124 103 102 103 102 94 90 89 87 85 83 80 77 73 69 66 63 59 57 55 51 49 48 47 43 39 36 33 30 30 29
285 290 276 250 269 63 78 79 75 69 84 86 67 71 75 72 80 95 107 96 96 96 93 93 93 91 88 85 83 80 77 72 68 64 60 57 54 51 48 46 46 43 40 38 35 30 27 26 23
268 263 265 259 300 62 95 85 89 83 72 79 78 61 56 76 80 97 116 105 96 93 94 96 95 93 90 87 83 79 75 71 67 63 59 55 52 49 46 45 43 39 36 35 31 24 23 25 18
274 261 246 248 64 73 96 102 101 96 82 79 85 74 64 68 93 115 118 106 102 101 101 101 99 96 93 89 84 79 74 69 64 60 56 53 50 49 48 44 40 37 35 34 30 23 22 21 15
254 255 253 207 91 85 80 85 85 82 85 84 86 90 83 83 101 106 104 105 106 108 111 110 107 103 97 91 84 78 74 69 65 60 56 53 51 49 49 45 40 34 31 31 27 21 18 15 11
272 261 264 154 111 99 87 86 92 94 98 102 104 102 95 103 102 103 102 107 112 116 118 120 120 116 109 100 91 82 79 74 70 65 58 54 54 57 57 49 40 34 29 27 22 15 13 11 360
286 289 276 127 110 96 95 90 97 106 105 106 112 107 113 110 107 107 105 105 109 117 126 134 136 129 121 114 108 100 92 86 84 79 60 51 41 70 75 65 45 33 27 21 15 4 355 347 332
285 299 302 104 111 92 94 98 95 101 96 110 117 118 129 130 125 115 112 113 118 122 128 133 135 137 140 137 134 132 127 127 135 171 246 262 239 200 116 83 59 32 18 4 352 337 324 310 296
281 290 25 96 113 114 117 111 96 99 103 86 86 109 125 132 132 131 127 119 111 112 121 119 122 123 128 136 140 158 161 175 192 214 244 270 174 157 136 87 98 9 330 316 305 300 291 282 272
239 8 30 83 102 126 127 121 122 110 102 96 97 108 126 139 142 140 137 130 127 128 123 121 123 126 117 96 121 141 121 125 116 44 52 347 42 33 66 121 200 250 275 291 277 279 276 262 250
187 114 87 75 98 121 124 124 117 119 119 122 126 132 142 147 145 141 133 122 119 117 112 121 124 116 111 106 99 80 83 93 55 16 51 34 20 20 68 154 218 257 279 307 296 284 274 285 175
161 128 122 105 94 104 110 111 109 112 125 130 133 140 148 149 140 137 125 121 119 109 105 99 106 106 95 89 102 93 69 72 56 9 44 53 20 11 15 47 0 6 10 340 335 339 9 10 24
151 124 107 110 110 104 98 92 100 107 122 131 136 143 148 141 140 131 126 127 116 118 114 93 84 88 94 88 78 88 64 48 75 2 34 55 35 15 1 48 11 8 4 359 352 11 20 21 20
137 125 118 111 105 103 105 104 109 122 128 133 137 141 139 137 134 131 133 128 128 128 110 95 91 87 100 104 85 79 98 82 55 18 39 49 40 30 9 32 18 7 4 7 9 19 17 19 34
145 138 124 113 121 123 118 120 130 141 139 139 141 139 132 132 125 127 124 124 126 122 110 99 92 73 61 58 62 78 63 66 60 29 21 46 44 40 25 19 13 8 7 9 18 17 11 22 34
159 153 144 146 145 147 132 135 145 151 147 147 146 139 142 141 138 130 127 126 124 117 109 107 95 88 75 63 50 61 55 51 52 43 18 25 34 52 35 15 10 17 14 9 21 24 12 17 23
177 174 169 163 173 154 135 150 161 161 156 154 151 153 157 155 140 131 128 123 121 119 122 115 94 96 90 92 82 65 69 55 54 48 25 16 20 33 40 18 16 22 20 13 22 24 13 10 12
184 188 179 165 169 150 143 157 159 168 164 163 165 167 165 155 143 133 125 120 122 126 122 112 108 105 106 84 80 66 53 57 57 57 36 19 21 23 27 23 33 29 25 13 21 16 10 4 5
199 186 157 143 150 150 161 167 173 180 178 178 178 171 163 153 145 134 128 129 129 125 121 123 125 108 92 66 70 74 69 67 60 59 40 29 30 21 26 25 32 37 37 22 23 14 8 9 7
216 158 132 129 147 158 171 186 180 186 186 184 180 174 165 151 143 139 141 139 132 121 123 128 117 105 97 83 91 96 87 86 85 60 43 40 37 20 28 30 28 37 36 25 27 21 14 7 20
203 166 151 151 159 173 178 188 185 189 187 185 193 188 164 154 150 152 149 139 130 128 125 116 117 112 105 99 77 72 69 68 76 73 53 45 47 34 21 20 27 38 46 31 29 24 27 15 12
178 140 151 164 172 185 193 186 198 191 193 190 191 185 169 158 150 149 150 144 140 130 124 123 116 108 105 101 85 93 94 88 82 84 83 75 59 49 22 21 30 43 43 37 32 30 18 29 18
131 132 152 175 202 236 224 207 198 189 187 187 188 184 170 156 152 152 151 143 137 129 125 117 110 105 106 104 92 71 71 79 75 79 76 82 67 55 33 32 34 41 42 42 41 33 29 28 25
138 138 149 207 236 240 232 221 200 193 185 182 184 182 171 159 152 153 145 136 128 124 121 113 112 107 108 112 118 105 90 87 79 76 64 82 79 55 42 44 41 42 42 38 32 42 44 36 30
183 182 182 198 207 232 218 223 212 198 180 177 179 177 169 162 161 157 150 145 140 139 138 132 129 128 132 136 135 120 105 104 96 93 85 82 83 71 52 50 46 45 46 40 28 31 40 44 46
197 208 204 207 218 216 204 217 195 177 166 168 174 172 167 168 166 157 154 149 150 152 153 149 143 141 146 154 140 121 114 105 95 82 91 82 88 89 84 65 64 52 44 43 40 29 34 38 36
196 209 235 269 266 251 209 175 156 155 161 169 171 167 169 167 162 155 154 154 155 158 159 156 152 152 156 162 135 116 111 100 97 85 80 74 79 78 77 85 86 76 56 42 42 39 42 42 33
228 222 223 228 229 229 216 190 178 171 173 172 169 169 167 165 162 158 157 159 159 160 161 164 159 156 157 159 143 126 126 113 101 81 68 65 66 60 63 74 87 83 75 61 54 41 38 52 49
209 226 234 250 245 247 242 225 169 174 175 179 175 169 167 164 162 158 158 158 154 155 159 162 159 155 157 158 140 129 128 123 114 97 87 76 77 73 65 61 65 69 75 74 66 46 44 37 33
230 226 221 235 269 277 256 261 167 162 170 175 176 170 166 163 159 155 155 153 154 160 166 165 163 156 154 150 136 133 136 130 124 115 110 99 83 69 64 67 63 61 56 60 68 58 57 51 41